When you browse on this site, cookies collect data to enhance your experience and personalize the content and advertising you see.
Visit our Privacy Policy to learn more. By continuing to use the site, you agree to this use of cookies and data.
  • In Romania
  • List of Countries
  • For 7 days
  • Water Temperature
  • Satellite Maps
  • Weather Map
  • Weather Widgets
  • user-avatar
    Login

    Hourly Weather Scherbino

    Today, 24 March, Sunday

    Time Temperature Precipitation Wind Pressure Humidity
    00:00 0°C° 0.9 mm 4 mps 746 mmHg 76%
    01:00 +1°C° 0.9 mm 3 mps 745 mmHg 77%
    02:00 +1°C° 0 mm 3 mps 744 mmHg 79%
    03:00 +1°C° 0.2 mm 3 mps 744 mmHg 80%
    04:00 +1°C° 0.2 mm 3 mps 743 mmHg 82%
    05:00 +1°C° 0.2 mm 3 mps 743 mmHg 84%
    06:00 +2°C° 0 mm 3 mps 743 mmHg 84%
    07:00 +1°C° 0 mm 4 mps 743 mmHg 85%
    08:00 +1°C° 0 mm 4 mps 742 mmHg 85%
    09:00 +2°C° 0 mm 5 mps 742 mmHg 78%
    10:00 +3°C° 0 mm 5 mps 742 mmHg 71%
    11:00 +5°C° 0 mm 5 mps 742 mmHg 64%
    12:00 +4°C° 0.1 mm 6 mps 742 mmHg 60%
    13:00 +5°C° 0.1 mm 6 mps 742 mmHg 56%
    14:00 +5°C° 0.1 mm 6 mps 742 mmHg 52%
    15:00 +5°C° 0.1 mm 5 mps 742 mmHg 54%
    16:00 +5°C° 0.1 mm 4 mps 742 mmHg 56%
    17:00 +4°C° 0.1 mm 3 mps 742 mmHg 59%
    18:00 +3°C° 0 mm 3 mps 742 mmHg 62%
    19:00 +2°C° 0 mm 3 mps 742 mmHg 65%
    20:00 +1°C° 0 mm 3 mps 742 mmHg 69%
    21:00 +1°C° 0 mm 2 mps 743 mmHg 71%
    22:00 -1°C° 0 mm 2 mps 743 mmHg 73%
    23:00 -1°C° 0 mm 2 mps 743 mmHg 75%

    Tomorrow, 25 March, Monday

    Time Temperature Precipitation Wind Pressure Humidity
    00:00 -2°C° 0 mm 2 mps 743 mmHg 77%
    01:00 -2°C° 0 mm 2 mps 743 mmHg 78%
    02:00 -2°C° 0 mm 2 mps 742 mmHg 79%
    03:00 -2°C° 0 mm 2 mps 742 mmHg 79%
    04:00 -3°C° 0 mm 2 mps 742 mmHg 79%
    05:00 -3°C° 0 mm 2 mps 742 mmHg 79%
    06:00 -2°C° 0 mm 2 mps 741 mmHg 75%
    07:00 -1°C° 0 mm 2 mps 741 mmHg 71%
    08:00 0°C° 0 mm 3 mps 741 mmHg 66%
    09:00 +2°C° 0 mm 3 mps 741 mmHg 60%
    10:00 +4°C° 0 mm 3 mps 741 mmHg 54%
    11:00 +5°C° 0 mm 4 mps 740 mmHg 48%
    12:00 +5°C° 0 mm 4 mps 740 mmHg 47%
    13:00 +6°C° 0 mm 4 mps 740 mmHg 47%
    14:00 +7°C° 0 mm 3 mps 740 mmHg 46%
    15:00 +5°C° 0 mm 3 mps 739 mmHg 51%
    16:00 +6°C° 0 mm 2 mps 739 mmHg 56%
    17:00 +5°C° 0 mm 2 mps 739 mmHg 60%
    18:00 +4°C° 0 mm 2 mps 739 mmHg 65%
    19:00 +2°C° 0 mm 2 mps 739 mmHg 69%
    20:00 +1°C° 0 mm 2 mps 739 mmHg 74%
    21:00 +1°C° 0 mm 2 mps 738 mmHg 75%
    22:00 +1°C° 0 mm 2 mps 738 mmHg 77%
    23:00 +1°C° 0 mm 2 mps 738 mmHg 78%

    Day after tomorrow, 26 March, Tuesday

    Time Temperature Precipitation Wind Pressure Humidity
    00:00 -1°C° 0 mm 2 mps 738 mmHg 81%
    01:00 -1°C° 0 mm 2 mps 738 mmHg 85%
    02:00 -1°C° 0 mm 2 mps 737 mmHg 88%
    03:00 -1°C° 0.2 mm 2 mps 737 mmHg 88%
    04:00 -1°C° 0.2 mm 2 mps 737 mmHg 89%
    05:00 -1°C° 0.2 mm 2 mps 737 mmHg 90%
    06:00 -1°C° 0.4 mm 3 mps 737 mmHg 88%
    07:00 -2°C° 0.4 mm 4 mps 737 mmHg 86%
    08:00 -1°C° 0.4 mm 4 mps 737 mmHg 84%
    09:00 -1°C° 0.1 mm 4 mps 737 mmHg 78%
    10:00 -1°C° 0.1 mm 4 mps 737 mmHg 73%
    11:00 -1°C° 0.1 mm 4 mps 737 mmHg 68%
    12:00 -1°C° 0.1 mm 4 mps 738 mmHg 64%
    13:00 0°C° 0.1 mm 4 mps 738 mmHg 61%
    14:00 +1°C° 0.1 mm 3 mps 738 mmHg 57%
    15:00 +1°C° 0.1 mm 3 mps 738 mmHg 60%
    16:00 +1°C° 0.1 mm 2 mps 738 mmHg 62%
    17:00 +2°C° 0.1 mm 1 mps 738 mmHg 64%
    18:00 +1°C° 0 mm 1 mps 738 mmHg 69%
    19:00 0°C° 0 mm 1 mps 738 mmHg 74%
    20:00 -2°C° 0 mm 1 mps 739 mmHg 79%
    21:00 -2°C° 0 mm 1 mps 739 mmHg 80%
    22:00 -2°C° 0 mm 1 mps 739 mmHg 80%
    23:00 -2°C° 0 mm 1 mps 740 mmHg 81%

    27 March, Wednesday

    Time Temperature Precipitation Wind Pressure Humidity
    00:00 -4°C° 0 mm 2 mps 740 mmHg 81%
    01:00 -4°C° 0 mm 2 mps 741 mmHg 81%
    02:00 -5°C° 0 mm 3 mps 741 mmHg 82%
    03:00 -6°C° 0 mm 3 mps 742 mmHg 82%
    04:00 -6°C° 0 mm 3 mps 742 mmHg 83%
    05:00 -7°C° 0 mm 4 mps 743 mmHg 84%
    06:00 -5°C° 0 mm 4 mps 743 mmHg 79%
    07:00 -5°C° 0 mm 5 mps 744 mmHg 75%
    08:00 -4°C° 0 mm 5 mps 744 mmHg 71%
    09:00 -2°C° 0.1 mm 5 mps 745 mmHg 67%
    10:00 -2°C° 0.1 mm 5 mps 745 mmHg 64%
    11:00 -1°C° 0.1 mm 5 mps 746 mmHg 60%
    12:00 -1°C° 0 mm 5 mps 746 mmHg 60%
    13:00 -1°C° 0 mm 5 mps 747 mmHg 59%
    14:00 -1°C° 0 mm 5 mps 747 mmHg 59%
    15:00 -1°C° 0 mm 5 mps 748 mmHg 61%
    16:00 -1°C° 0 mm 5 mps 748 mmHg 62%
    17:00 -2°C° 0 mm 5 mps 749 mmHg 63%
    18:00 -2°C° 0 mm 4 mps 750 mmHg 65%
    19:00 -1°C° 0 mm 3 mps 750 mmHg 67%
    20:00 -1°C° 0 mm 3 mps 751 mmHg 69%
    21:00 -2°C° 0 mm 3 mps 751 mmHg 72%
    22:00 -4°C° 0 mm 3 mps 752 mmHg 75%
    23:00 -4°C° 0 mm 2 mps 752 mmHg 77%

    28 March, Thursday

    Time Temperature Precipitation Wind Pressure Humidity
    00:00 -4°C° 0 mm 2 mps 752 mmHg 78%
    01:00 -5°C° 0 mm 2 mps 753 mmHg 79%
    02:00 -5°C° 0 mm 2 mps 753 mmHg 80%
    03:00 -5°C° 0 mm 2 mps 754 mmHg 80%
    04:00 -5°C° 0 mm 2 mps 754 mmHg 81%
    05:00 -6°C° 0 mm 2 mps 755 mmHg 81%
    06:00 -5°C° 0 mm 2 mps 755 mmHg 76%
    07:00 -4°C° 0 mm 2 mps 755 mmHg 70%
    08:00 -3°C° 0 mm 2 mps 756 mmHg 65%
    09:00 -2°C° 0 mm 2 mps 756 mmHg 56%
    10:00 +1°C° 0 mm 2 mps 756 mmHg 47%
    11:00 +3°C° 0 mm 2 mps 756 mmHg 39%
    12:00 +3°C° 0 mm 2 mps 756 mmHg 39%
    13:00 +3°C° 0 mm 3 mps 755 mmHg 39%
    14:00 +3°C° 0 mm 3 mps 755 mmHg 40%
    15:00 +3°C° 0 mm 3 mps 755 mmHg 46%
    16:00 +4°C° 0 mm 2 mps 755 mmHg 52%
    17:00 +3°C° 0 mm 2 mps 754 mmHg 57%
    18:00 +2°C° 0 mm 2 mps 754 mmHg 62%
    19:00 0°C° 0 mm 3 mps 754 mmHg 66%
    20:00 0°C° 0 mm 3 mps 754 mmHg 70%
    21:00 -1°C° 0 mm 3 mps 753 mmHg 72%
    22:00 -1°C° 0 mm 3 mps 753 mmHg 73%
    23:00 -1°C° 0 mm 3 mps 753 mmHg 75%

    29 March, Friday

    Time Temperature Precipitation Wind Pressure Humidity
    00:00 -2°C° 0 mm 4 mps 752 mmHg 79%
    01:00 -1°C° 0 mm 4 mps 752 mmHg 83%
    02:00 -1°C° 0 mm 4 mps 751 mmHg 86%
    03:00 -1°C° 0 mm 4 mps 751 mmHg 88%
    04:00 -1°C° 0 mm 4 mps 751 mmHg 89%
    05:00 0°C° 0 mm 5 mps 750 mmHg 90%
    06:00 0°C° 0 mm 5 mps 750 mmHg 89%
    07:00 0°C° 0 mm 5 mps 751 mmHg 87%
    08:00 +1°C° 0 mm 5 mps 751 mmHg 86%
    09:00 +1°C° 0 mm 4 mps 751 mmHg 80%
    10:00 +3°C° 0 mm 4 mps 751 mmHg 75%
    11:00 +4°C° 0 mm 4 mps 751 mmHg 69%
    12:00 +5°C° 0 mm 4 mps 751 mmHg 65%
    13:00 +7°C° 0 mm 3 mps 751 mmHg 62%
    14:00 +7°C° 0 mm 3 mps 751 mmHg 58%
    15:00 +7°C° 0 mm 3 mps 750 mmHg 62%
    16:00 +7°C° 0 mm 2 mps 750 mmHg 66%
    17:00 +7°C° 0 mm 1 mps 749 mmHg 70%
    18:00 +6°C° 0 mm 1 mps 749 mmHg 76%
    19:00 +4°C° 0 mm 2 mps 749 mmHg 82%
    20:00 +2°C° 0 mm 2 mps 749 mmHg 89%
    21:00 +3°C° 0 mm 2 mps 748 mmHg 90%
    22:00 +3°C° 0 mm 2 mps 748 mmHg 92%
    23:00 +3°C° 0 mm 2 mps 748 mmHg 94%
    Show more